Weather History for Monument Pass, CO

Change the Weather History Date:

Tuesday, September 18, 2012

  Actual Average (KAPA) Record (KAPA)
Temperature  
Mean Temperature 55 °F -  
Max Temperature 71 °F 71 °F 89 °F (1998)
Min Temperature 39 °F 43 °F 32 °F (1996)
Degree Days  
Heating Degree Days 10    
Growing Degree Days 5 (Base 50)    
Moisture  
Dew Point 31 °F    
Average Humidity 46    
Maximum Humidity 81    
Minimum Humidity 19    
Precipitation  
Precipitation 0.00 in - - ()
Sea Level Pressure  
Sea Level Pressure 30.26 in    
Wind  
Wind Speed 7 mph (SW)    
Max Wind Speed 12 mph    
Max Gust Speed -    
Visibility 10 miles    
Events      
Averages and records for this station are not official NWS values.
T = Trace of Precipitation, MM = Missing Value Source: NWS Daily Summary

Daily Weather History Graph

Daily Weather History Graph

Search for Another Location

Airport:

Trip Planner

Search our weather history database for the weather conditions in past years. The results will help you decide how hot, cold, wet, or windy it might be!

Date:

Astronomy

Sep. 18, 2012 Rise Set
Actual Time 6:43 AM MDT 7:01 PM MDT
Civil Twilight 6:16 AM MDT 7:27 PM MDT
Nautical Twilight 5:44 AM MDT 7:59 PM MDT
Astronomical Twilight 5:12 AM MDT 8:31 PM MDT
Moon 9:44 AM MDT (9/18) 8:27 PM MDT (9/18)
Length of Visible Light 13h 11m
Length of Day
12h 18m
Waxing Crescent, 9% of the Moon is Illuminated
Sep 18
Waxing Crescent
Sep 22
First Quarter
Sep 29
Full
Oct 8
Last Quarter
Oct 15
New

Hourly Weather History & Observations

Time (MDT) Temp. Windchill Dew Point Humidity Pressure Visibility Wind Dir Wind Speed Gust Speed Precip Events Conditions
12:11 AM 42.8 °F 36.6 °F 35.6 °F 76% 30.28 in 10.0 mi SSW 11.5 mph - N/A   Clear
12:31 AM 42.8 °F 37.5 °F 35.6 °F 76% 30.28 in 10.0 mi SSW 9.2 mph - N/A   Clear
12:51 AM 41.0 °F 34.7 °F 35.6 °F 81% 30.27 in 10.0 mi SSW 10.4 mph - N/A   Clear
1:11 AM 41.0 °F 34.7 °F 35.6 °F 81% 30.27 in 10.0 mi SSW 10.4 mph - N/A   Clear
1:31 AM 42.8 °F 37.5 °F 35.6 °F 76% 30.26 in 10.0 mi SSW 9.2 mph - N/A   Clear
2:11 AM 42.8 °F 37.5 °F 35.6 °F 76% 30.25 in 10.0 mi SSW 9.2 mph - N/A   Clear
2:31 AM 42.8 °F 37.0 °F 35.6 °F 76% 30.25 in 10.0 mi SSW 10.4 mph - N/A   Clear
2:51 AM 42.8 °F 37.0 °F 33.8 °F 70% 30.24 in 10.0 mi SSW 10.4 mph - N/A   Clear
3:11 AM 42.8 °F 37.0 °F 33.8 °F 70% 30.24 in 10.0 mi SSW 10.4 mph - N/A   Clear
3:31 AM 41.0 °F 35.2 °F 33.8 °F 76% 30.24 in 10.0 mi SSW 9.2 mph - N/A   Clear
3:51 AM 41.0 °F 34.3 °F 33.8 °F 76% 30.24 in 10.0 mi SW 11.5 mph - N/A   Clear
4:11 AM 41.0 °F 34.7 °F 33.8 °F 76% 30.24 in 10.0 mi SW 10.4 mph - N/A   Clear
4:31 AM 41.0 °F 35.2 °F 33.8 °F 76% 30.24 in 10.0 mi SW 9.2 mph - N/A   Clear
4:51 AM 41.0 °F 37.1 °F 33.8 °F 76% 30.24 in 10.0 mi SSW 5.8 mph - N/A   Clear
5:11 AM 39.2 °F 34.2 °F 33.8 °F 81% 30.25 in 10.0 mi SSW 6.9 mph - N/A   Clear
5:31 AM 39.2 °F 34.2 °F 32.0 °F 75% 30.25 in 10.0 mi SW 6.9 mph - N/A   Clear
5:51 AM 39.2 °F 34.2 °F 32.0 °F 75% 30.25 in 10.0 mi SW 6.9 mph - N/A   Clear
6:11 AM 41.0 °F 36.4 °F 32.0 °F 70% 30.26 in 10.0 mi SW 6.9 mph - N/A   Clear
6:31 AM 41.0 °F 37.1 °F 32.0 °F 70% 30.26 in 10.0 mi SW 5.8 mph - N/A   Clear
6:50 AM 41.0 °F 36.4 °F 32.0 °F 70% 30.27 in 10.0 mi WSW 6.9 mph - N/A   Clear
7:10 AM 41.0 °F 39.0 °F 32.0 °F 70% 30.28 in 10.0 mi WSW 3.5 mph - N/A   Clear
7:31 AM 44.6 °F 42.2 °F 33.8 °F 66% 30.28 in 7.0 mi WSW 4.6 mph - N/A   Clear
7:50 AM 46.4 °F 44.3 °F 33.8 °F 62% 30.29 in 7.0 mi SW 4.6 mph - N/A   Clear
8:11 AM 51.8 °F - 33.8 °F 50% 30.29 in 10.0 mi SW 3.5 mph - N/A   Clear
8:31 AM 53.6 °F - 33.8 °F 47% 30.29 in 10.0 mi WSW 4.6 mph - N/A   Clear
8:51 AM 57.2 °F - 33.8 °F 41% 30.29 in 10.0 mi WNW 3.5 mph - N/A   Clear
9:11 AM 59.0 °F - 32.0 °F 36% 30.30 in 10.0 mi Calm Calm - N/A   Clear
9:31 AM 59.0 °F - 28.4 °F 31% 30.30 in 10.0 mi Calm Calm - N/A   Clear
9:51 AM 60.8 °F - 26.6 °F 27% 30.30 in 10.0 mi Calm Calm - N/A   Clear
10:10 AM 60.8 °F - 28.4 °F 29% 30.30 in 10.0 mi ENE 3.5 mph - N/A   Clear
10:30 AM 62.6 °F - 28.4 °F 27% 30.30 in 10.0 mi Calm Calm - N/A   Clear
10:51 AM 62.6 °F - 28.4 °F 27% 30.30 in 10.0 mi North 4.6 mph - N/A   Clear
11:11 AM 64.4 °F - 26.6 °F 24% 30.30 in 10.0 mi NW 5.8 mph - N/A   Clear
11:31 AM 64.4 °F - 28.4 °F 26% 30.30 in 10.0 mi West 4.6 mph - N/A   Clear
11:50 AM 66.2 °F - 28.4 °F 24% 30.29 in 10.0 mi West 6.9 mph - N/A   Clear
12:11 PM 66.2 °F - 28.4 °F 24% 30.29 in 10.0 mi North 3.5 mph - N/A   Clear
12:31 PM 68.0 °F - 28.4 °F 23% 30.28 in 10.0 mi NNE 5.8 mph - N/A   Clear
12:51 PM 68.0 °F - 28.4 °F 23% 30.28 in 10.0 mi NNE 6.9 mph - N/A   Clear
1:11 PM 68.0 °F - 26.6 °F 21% 30.27 in 10.0 mi NNE 4.6 mph - N/A   Clear
1:31 PM 68.0 °F - 26.6 °F 21% 30.27 in 10.0 mi North 3.5 mph - N/A   Clear
1:51 PM 69.8 °F - 26.6 °F 20% 30.26 in 10.0 mi NNE 8.1 mph - N/A   Clear
2:11 PM 69.8 °F - 26.6 °F 20% 30.25 in 10.0 mi Calm Calm - N/A   Clear
2:30 PM 68.0 °F - 26.6 °F 21% 30.25 in 10.0 mi Calm Calm - N/A   Clear
2:51 PM 69.8 °F - 26.6 °F 20% 30.24 in 10.0 mi NNW 4.6 mph - N/A   Clear
3:11 PM 71.6 °F - 26.6 °F 19% 30.24 in 10.0 mi NNW 4.6 mph - N/A   Clear
3:51 PM 71.6 °F - 26.6 °F 19% 30.23 in 10.0 mi Calm Calm - N/A   Clear
4:11 PM 71.6 °F - 26.6 °F 19% 30.23 in 10.0 mi WNW 3.5 mph - N/A   Clear
4:31 PM 71.6 °F - 26.6 °F 19% 30.23 in 10.0 mi NNE 3.5 mph - N/A   Clear
4:51 PM 71.6 °F - 26.6 °F 19% 30.23 in 10.0 mi Calm Calm - N/A   Clear
5:11 PM 69.8 °F - 26.6 °F 20% 30.22 in 10.0 mi ENE 3.5 mph - N/A   Clear
5:31 PM 69.8 °F - 26.6 °F 20% 30.22 in 10.0 mi Calm Calm - N/A   Clear
5:51 PM 68.0 °F - 28.4 °F 23% 30.23 in 10.0 mi East 4.6 mph - N/A   Clear
6:11 PM 68.0 °F - 30.2 °F 24% 30.23 in 10.0 mi SE 3.5 mph - N/A   Clear
6:30 PM 64.4 °F - 32.0 °F 30% 30.23 in 10.0 mi SE 4.6 mph - N/A   Clear
6:51 PM 60.8 °F - 32.0 °F 34% 30.23 in 10.0 mi SE 5.8 mph - N/A   Clear
7:11 PM 55.4 °F - 32.0 °F 41% 30.23 in 10.0 mi South 3.5 mph - N/A   Clear
7:31 PM 53.6 °F - 32.0 °F 44% 30.23 in 10.0 mi South 5.8 mph - N/A   Clear
7:51 PM 51.8 °F - 32.0 °F 47% 30.23 in 10.0 mi South 8.1 mph - N/A   Clear
8:11 PM 51.8 °F - 32.0 °F 47% 30.24 in 10.0 mi South 6.9 mph - N/A   Clear
8:31 PM 50.0 °F - 32.0 °F 50% 30.24 in 10.0 mi South 6.9 mph - N/A   Clear
8:50 PM 51.8 °F - 32.0 °F 47% 30.24 in 10.0 mi SSW 8.1 mph - N/A   Clear
9:11 PM 50.0 °F - 32.0 °F 50% 30.24 in 10.0 mi SSW 8.1 mph - N/A   Clear
9:51 PM 50.0 °F - 32.0 °F 50% 30.24 in 10.0 mi South 6.9 mph - N/A   Clear
10:31 PM 48.2 °F - 32.0 °F 54% 30.24 in 10.0 mi SSW 5.8 mph - N/A   Clear
10:51 PM 50.0 °F - 32.0 °F 50% 30.24 in 10.0 mi SSW 8.1 mph - N/A   Clear
11:11 PM 50.0 °F - 32.0 °F 50% 30.23 in 10.0 mi SSW 9.2 mph - N/A   Clear
11:51 PM 51.8 °F - 30.2 °F 44% 30.23 in 10.0 mi SSW 9.2 mph - N/A   Clear